User: anonymous
Location: NJAA Observatory
(40.6819°N, 74.8979°W)
Time: 13:35:09
(UTC-04:00)
Language:

Cosmos 220 Rocket - Orbit

View from above orbital plane
View from above orbital plane
View from above satellite
View from above satellite

Ground track
Ground track

The orbit data is extracted from the following two-line orbital elements,

1 03230U 68040B   14108.48160032  .00002730  00000-0  30174-3 0  2155
2 03230 074.0398 032.8874 0033062 290.4756 069.2876 14.87562308463476
Epoch (UTC): 18 April 2014 11:33:30
Eccentricity: 0.0033062
inclination: 74.0398°
perigee height: 582 km
apogee height: 628 km
right ascension of ascending node: 32.8874°
argument of perigee: 290.4756°
revolutions per day: 14.87562308
mean anomaly at epoch: 69.2876°
orbit number at epoch: 46347

The dashed part of the orbit path shows where the satellite is in the earth's shadow,  

DLR